Powrót do katalogu

DIRECTV 15

AktywnyŁącznośćGEO
NORAD 40663·PAYLOAD·🇺🇸 United States

Wystrzelony May 27, 2015 z Guiana Space Centre

Loading…

TLE

ŚwieżeSource: Space-Track

Epoka: Sep 14, 2026, 15:30 UTC

1 40663U 15026A   26257.64593199 -.00000110  00000-0  00000-0 0  9994
2 40663   0.0141 115.3087 0000766  27.8997 340.0851  1.00269965 41366

Śledź DIRECTV 15 w czasie rzeczywistym z AllMySat

Download on the App Store